EW3101 Weather Reports


time (UTC)temp
C
wind
direction
speed
KPH
gust
KPH
rain 1hr
cm
rain 24hr
cm
rain mn
cm
humidity
%
barometer
mb
20260505100216 12 45 22.5 27.4 0.00 0.00 0.00 49 1009.9
20260505095216 12 45 17.7 20.9 0.00 0.00 0.00 49 1009.9
20260505094216 12 45 14.5 19.3 0.00 0.00 0.00 50 1009.4
20260505093216 12 23 14.5 20.9 0.00 0.00 0.00 50 1009.6
20260505092236 12 45 14.5 19.3 0.00 0.00 0.00 50 1009.7
20260505091216 12 45 16.1 17.7 0.00 0.00 0.00 49 1009.6
20260505090216 12 23 19.3 24.1 0.00 0.00 0.00 48 1009.8
20260505085216 12 23 20.9 25.7 0.00 0.00 0.00 47 1009.6
20260505084216 12 23 22.5 27.4 0.00 0.00 0.00 47 1009.5
20260505083216 12 23 22.5 29.0 0.00 0.00 0.00 48 1009.1
20260505082216 12 23 19.3 22.5 0.00 0.00 0.00 48 1009.0
20260505081216 12 23 19.3 24.1 0.00 0.00 0.00 48 1008.9
20260505080236 12 23 19.3 24.1 0.00 0.00 0.00 48 1008.8
20260505075216 12 23 12.9 17.7 0.00 0.00 0.00 47 1008.9
20260505074216 12 23 16.1 22.5 0.00 0.00 0.00 47 1009.1
20260505073216 12 23 19.3 25.7 0.00 0.00 0.00 46 1009.2
20260505072216 12 23 19.3 27.4 0.00 0.00 0.00 48 1009.1
20260505071216 12 23 16.1 20.9 0.00 0.00 0.00 48 1009.0
20260505070236 12 23 22.5 29.0 0.00 0.00 0.00 47 1009.0
20260505065216 12 23 20.9 24.1 0.00 0.00 0.00 50 1008.8
20260505064216 12 23 22.5 29.0 0.00 0.00 0.00 53 1008.9
20260505063216 13 23 24.1 29.0 0.00 0.00 0.00 51 1008.9
20260505062216 14 23 20.9 27.4 0.00 0.00 0.00 45 1009.3
20260505061216 14 23 14.5 20.9 0.00 0.00 0.00 45 1009.2
20260505060357 14 23 22.5 27.4 0.00 0.00 0.00 44 1008.8
20260505055216 14 23 24.1 29.0 0.00 0.00 0.00 44 1008.2
20260505054216 15 23 27.4 33.8 0.00 0.00 0.00 43 1007.9
20260505053216 15 23 22.5 29.0 0.00 0.00 0.00 43 1007.4
20260505052216 15 0 20.9 25.7 0.00 0.00 0.00 43 1007.5
20260505051216 15 23 25.7 32.2 0.00 0.00 0.00 41 1007.1
20260505050215 16 23 30.6 35.4 0.00 0.00 0.00 40 1007.4
20260505041216 18 23 25.7 37.0 0.00 0.00 0.00 37 1006.4
20260505040216 18 23 25.7 38.6 0.00 0.00 0.00 36 1006.3
20260505035216 19 23 16.1 19.3 0.00 0.00 0.00 37 1006.4
20260505034216 19 23 17.7 25.7 0.00 0.00 0.00 36 1006.1
20260505033216 20 0 19.3 32.2 0.00 0.00 0.00 36 1005.9
20260505032216 20 23 24.1 32.2 0.00 0.00 0.00 35 1005.6
20260505031216 20 23 25.7 35.4 0.00 0.00 0.00 34 1005.2
20260505030216 21 23 25.7 35.4 0.00 0.00 0.00 35 1005.2
20260505025216 21 23 19.3 25.7 0.00 0.00 0.00 35 1004.8
20260505024216 21 23 16.1 20.9 0.00 0.00 0.00 36 1004.7
20260505023216 22 0 16.1 19.3 0.00 0.00 0.00 37 1004.4
20260505022236 22 23 11.3 14.5 0.00 0.00 0.00 36 1004.3
20260505021236 23 23 12.9 16.1 0.00 0.00 0.00 36 1004.2
20260505020216 23 23 24.1 32.2 0.00 0.00 0.00 36 1004.1
20260505015216 23 23 19.3 25.7 0.00 0.00 0.00 37 1003.7
20260505014236 23 23 12.9 19.3 0.00 0.00 0.00 40 1003.5
20260505013216 22 338 12.9 17.7 0.00 0.00 0.00 55 1002.8
20260505012236 23 0.0 0.0 0.00 0.00 0.00 55 1002.7
20260505011256 24 0.0 0.0 0.00 0.00 0.00 52 1002.4
20260505010216 25 203 1.6 3.2 0.00 0.00 0.00 48 1002.3
20260505005216 25 203 6.4 8.0 0.00 0.00 0.00 46 1002.2
20260505004216 25 203 8.0 9.7 0.00 0.00 0.00 45 1002.2
20260505003216 26 203 6.4 8.0 0.00 0.00 0.00 44 1002.0
20260505002236 26 203 6.4 8.0 0.00 0.00 0.00 43 1002.3
20260505001216 27 203 9.7 11.3 0.00 0.00 0.00 41 1002.2
20260505000235 27 203 9.7 14.5 0.00 0.00 0.00 38 1002.3
20260504235215 28 203 9.7 11.3 0.00 0.00 0.00 35 1002.3
20260504234215 28 203 6.4 9.7 0.00 0.00 0.00 34 1002.4
20260504233216 28 203 8.0 11.3 0.00 0.00 0.00 32 1002.3
20260504232236 29 203 8.0 11.3 0.00 0.00 0.00 31 1002.2
20260504231216 29 225 6.4 9.7 0.00 0.00 0.00 32 1002.2
20260504230256 29 225 9.7 11.3 0.00 0.00 0.00 31 1002.1
20260504225216 29 203 9.7 12.9 0.00 0.00 0.00 33 1002.0
20260504224215 30 203 11.3 14.5 0.00 0.00 0.00 31 1002.0
20260504223215 30 203 6.4 9.7 0.00 0.00 0.00 33 1002.0
20260504222215 30 203 8.0 11.3 0.00 0.00 0.00 34 1002.0
20260504221236 29 180 9.7 12.9 0.00 0.00 0.00 34 1002.0
20260504220215 29 180 11.3 17.7 0.00 0.00 0.00 34 1001.8
20260504215215 29 180 11.3 16.1 0.00 0.00 0.00 34 1002.0
20260504214236 30 180 12.9 20.9 0.00 0.00 0.00 34 1002.1
20260504213215 30 203 12.9 16.1 0.00 0.00 0.00 31 1002.2
20260504212215 30 158 11.3 19.3 0.00 0.00 0.00 32 1002.2
20260504211215 30 68 6.4 11.3 0.00 0.00 0.00 32 1002.4
20260504210215 31 135 8.0 12.9 0.00 0.00 0.00 30 1002.4
20260504205215 31 225 8.0 9.7 0.00 0.00 0.00 25 1002.5
20260504204215 31 270 6.4 11.3 0.00 0.00 0.00 26 1002.5
20260504203215 30 225 11.3 14.5 0.00 0.00 0.00 27 1002.6
20260504202215 30 293 1.6 3.2 0.00 0.00 0.00 32 1002.7
20260504201215 30 203 8.0 9.7 0.00 0.00 0.00 27 1002.8
20260504200217 30 248 4.8 6.4 0.00 0.00 0.00 25 1003.0
20260504195217 30 203 4.8 9.7 0.00 0.00 0.00 27 1003.1
20260504194217 30 203 8.0 12.9 0.00 0.00 0.00 31 1003.1
20260504193218 30 203 8.0 12.9 0.00 0.00 0.00 34 1003.1
20260504192337 30 225 8.0 12.9 0.00 0.00 0.00 28 1003.1
20260504191217 30 225 4.8 8.0 0.00 0.00 0.00 31 1003.1
20260504190217 29 225 8.0 11.3 0.00 0.00 0.00 28 1003.0
20260504185217 29 293 6.4 11.3 0.00 0.00 0.00 31 1003.1
20260504184217 29 225 8.0 12.9 0.00 0.00 0.00 35 1003.1
20260504183217 29 0.0 4.8 0.00 0.00 0.00 36 1003.2
20260504182217 29 180 6.4 9.7 0.00 0.00 0.00 38 1003.5
20260504181217 28 225 8.0 12.9 0.00 0.00 0.00 36 1003.3
20260504180217 28 203 3.2 8.0 0.00 0.00 0.00 37 1003.4
20260504175217 28 203 6.4 11.3 0.00 0.00 0.00 40 1003.4
20260504174217 27 180 8.0 11.3 0.00 0.00 0.00 41 1003.6
20260504173217 27 225 9.7 14.5 0.00 0.00 0.00 44 1003.7
20260504172237 27 248 6.4 12.9 0.00 0.00 0.00 43 1003.7
20260504171217 26 225 4.8 6.4 0.00 0.00 0.00 42 1003.7
20260504170217 26 225 6.4 11.3 0.00 0.00 0.00 46 1003.8
20260504160237 24 225 8.0 11.3 0.00 0.00 0.00 46 1003.9
20260504150217 22 225 11.3 16.1 0.00 0.00 0.00 51 1003.4
20260504141217 20 203 19.3 24.1 0.00 0.00 0.00 55 1003.4
20260504140217 20 225 12.9 19.3 0.00 0.00 0.00 56 1003.6
20260504130217 18 203 12.9 16.1 0.00 0.00 0.00 58 1003.5
20260504120216 16 180 9.7 12.9 0.00 0.00 0.00 62 1002.8
20260504110216 15 180 8.0 11.3 0.00 0.00 0.00 66 1003.1